Regional Weather Roundup
Issued by NWS

Home | Current Version | Previous Version | Graphics & Text | Print | Product List | Glossary On
Versions: 1 2 3 4 5 6 7 8 9 10 11 12 13 14 15 16 17 18 19 20 21 22 23 24 25 26 27 28 29 30 31 32 33 34 35 36 37 38 39 40 41 42 43 44 45 46 47 48 49 50
000
ASUS45 KCYS 180110
RWRWY

WYOMING REGIONAL WEATHER ROUNDUP
NATIONAL WEATHER SERVICE CHEYENNE WY
700 PM MDT FRI APR 17 2015

NOTE:  "FAIR" INDICATES FEW OR NO CLOUDS BELOW 12,000 FEET
WITH NO SIGNIFICANT WEATHER AND/OR OBSTRUCTIONS TO VISIBILITY.

WYZ001-180200-
YELLOWSTONE NATIONAL PARK

CITY           SKY/WX    TMP DP  RH WIND       PRES   REMARKS
LK YELLOWSTONE   N/A     50  11  20 CALM      30.13S
W YELLOWSTONE  NOT AVBL

$$
WYZ002>013-054>058-071-098>099-180200-
NORTHERN WYOMING

CITY           SKY/WX    TMP DP  RH WIND       PRES   REMARKS
JACKSON        SUNNY     61  10  13 N9        30.04S
CODY           FAIR      57  27  30 CALM      30.07F
GREYBULL       FAIR      63  27  25 S6        30.03F
WORLAND        FAIR      60  29  30 S7        30.05F
SHERIDAN       FAIR      59  32  36 SE8       30.07F
BUFFALO        FAIR      56  29  35 E6        30.11S
GILLETTE       FAIR      52  39  61 S17       30.09S
HULETT         FAIR      55  32  41 E9        30.11S
NEWCASTLE      LGT RAIN  43  43 100 S5        30.14R

$$
WYZ014>020-022>026-101>103-180200-
CENTRAL WYOMING

CITY           SKY/WX    TMP DP  RH WIND       PRES   REMARKS
BIG PINEY      FAIR      50  29  44 SW13      30.09R
PINEDALE       FAIR      54   7  15 NE10G16   30.08F
DUBOIS         FAIR      48  19  32 SE14G20   30.11S
LANDER         CLOUDY    50  38  63 SE8       30.08R
RIVERTON       FAIR      51  36  56 SE12      30.10R
CASPER         LGT RAIN  34  33  96 E7        30.13S FOG     WCI  28
DOUGLAS        LGT RAIN  36  35  96 NW8       30.12S FOG     WCI  30

$$
WYZ021-027>030-104>119-180200-
SOUTHERN WYOMING

CITY           SKY/WX    TMP DP  RH WIND       PRES   REMARKS
EVANSTON       LGT RAIN  40  33  76 E15G22    30.11R WCI  32
KEMMERER       FAIR      41  34  75 S9        30.12S
FORT BRIDGER   CLOUDY    39  37  93 S14       30.14S WCI  31
ROCK SPRINGS   LGT RAIN  37  35  92 NE22G29   30.09F WCI  26
DIXON          CLOUDY    43  32  65 N10       30.02S
RAWLINS        LGT SNOW  33  32  96 NE13      30.08F VSB 1   WCI  24
SARATOGA       MOCLDY    34  32  93 N3        30.06S
LARAMIE        CLOUDY    32  28  85 N9        30.04R WCI  24
CHEYENNE       LGT RAIN  35  31  85 E9        30.07R FOG     WCI  28
TORRINGTON     RAIN      41  40  96 W6        30.10R FOG
PINE BLUFFS    DRIZZLE   39  36  87 NW12      30.05R WCI  32

$$


USA.gov is the U.S. government's official web portal to all federal, state and local government web resources and services.